Regional Weather Roundup
Issued by NWS

Home | Current Version | Previous Version | Text Only | Print | Product List | Glossary On
Versions: 1 2 3 4 5 6 7 8 9 10 11 12 13 14 15 16 17 18 19 20 21 22 23 24 25 26 27 28 29 30 31 32 33 34 35 36 37 38 39 40 41 42 43 44 45 46 47 48 49 50
209
ASUS43 KLMK 201502
RWRKY
KENTUCKY REGIONAL WEATHER ROUNDUP
NATIONAL WEATHER SERVICE LOUISVILLE KY
1000 AM EST MON FEB 20 2017

NOTE "FAIR" INDICATES FEW OR NO CLOUDS BELOW 12,000 FEET
WITH NO SIGNIFICANT WEATHER AND/OR OBSTRUCTIONS TO VISIBILITY.

KYZ001>023-026-027-061>063-070>075-201600-
WESTERN AND SOUTH CENTRAL KENTUCKY

CITY           SKY/WX    TMP DP  RH WIND       PRES   REMARKS
PADUCAH        CLOUDY    57  51  80 SE6       30.11F
HENDERSON      CLOUDY    52  48  87 E3        30.15S
OWENSBORO      CLOUDY    54  50  86 SE7       30.17R FOG
HOPKINSVILLE   CLOUDY    55  52  90 SE7       30.15S
BOWLING GREEN  CLOUDY    50  48  93 E3        30.19S FOG
GLASGOW        NOT AVBL
$$

KYZ024-025-028>034-038-045-046-053-201600-
NORTH CENTRAL KENTUCKY

CITY           SKY/WX    TMP DP  RH WIND       PRES   REMARKS
LOUISVILLE/SDF FOG       45  43  93 VRB3      30.20F VSB 1
LOUISVILLE/LOU MOSUNNY   48  45  89 E3        30.21F FOG
FORT KNOX      FOG       44  44 100 E6        30.17F VSB 1/4
$$

KYZ035>037-039>044-047>052-055>060-089>105-201600-
NORTHEAST KENTUCKY

CITY           SKY/WX    TMP DP  RH WIND       PRES   REMARKS
LEXINGTON      MOSUNNY   54  47  77 SE8       30.22F
COVINGTON      FOG       45  45 100 E6        30.23S VSB<1/4
FRANKFORT      CLOUDY    43  41  93 CALM      30.22S FOG
$$

KYZ054-064>069-076>088-106>120-201600-
SOUTHEAST KENTUCKY

CITY           SKY/WX    TMP DP  RH WIND       PRES   REMARKS
JACKSON        SUNNY     51  44  77 E3        30.24F
LONDON         SUNNY     52  45  77 CALM      30.23F
SOMERSET       MOSUNNY   50  46  87 CALM      30.24F
MIDDLESBORO    FOG       41  41 100 CALM      30.26F VSB<1/4
MONTICELLO     MOSUNNY   54  49  83 VRB7      30.24F
$$





USA.gov is the U.S. government's official web portal to all federal, state and local government web resources and services.